Location: Newark
(48.0000°N, 67.0000°E)
Time: 19:10:01
(UTC+00:00)

A-11 Canister half - Pass Details

Date: 19 February 2020
Orbit: 1516 x 1683 km, 47.2° (Epoch: 09 April)

Event Time Altitude Azimuth Distance (km) Brightness Sun altitude
Rises 17:07:50 0° 285° (WNW) 4,820 12.4 -40.7°
Reaches altitude 10° 17:11:00 10° 283° (WNW) 3,811 11.6 -41.1°
Enters shadow 17:18:13 53° 258° (WSW) 1,873 9.4 -42.1°
